Le nostre stazioni meteo in Italia

Pubblicità
Il mio iltempo24.it
Desenzano, Italia (16089): Temperatura & dewpoint: 18.07.2019 07:00:00 - 24.07.2019 07:00:00 (CEST)Desenzano, Italia (16089): velocità del vento: 18.07.2019 07:00:00 - 24.07.2019 07:00:00 (CEST)Desenzano, Italia (16089): direzione del vento: 18.07.2019 07:00:00 - 24.07.2019 07:00:00 (CEST)Desenzano, Italia (16089): reduced air pressure: 18.07.2019 07:00:00 - 24.07.2019 07:00:00 (CEST)
Data & Tempo tt [°C] td [°C] ff [km/h] ff [kn] dd ppp [hPa]
24.07.2019 07:00:00 - - - - - -
24.07.2019 06:00:00 25,9 24,8 0 0 N 1016,7
24.07.2019 05:00:00 26,0 24,7 0 0 N 1016,7
24.07.2019 04:00:00 26,0 24,4 0 0 N 1016,8
24.07.2019 03:00:00 26,2 24,6 0 0 N 1017,1
24.07.2019 02:00:00 26,9 25,7 0 0 N 1017,2
24.07.2019 01:00:00 27,3 24,1 0 0 N 1017,2
24.07.2019 00:00:00 27,5 24,5 0 0 N 1017,1
23.07.2019 23:00:00 28,3 24,0 0 0 N 1016,8
23.07.2019 22:00:00 29,2 21,1 0 0 N 1016,5
23.07.2019 21:00:00 30,9 21,4 0 0 N 1016,4
23.07.2019 20:00:00 32,5 21,7 0 0 N 1016,4
23.07.2019 19:00:00 33,3 22,4 0 0 N 1016,2
23.07.2019 18:00:00 33,7 22,8 4 2 S 1016,6
23.07.2019 17:00:00 34,2 23,6 2 1 S 1016,9
23.07.2019 16:00:00 34,3 24,0 2 1 ONO 1017,3
23.07.2019 15:00:00 32,2 24,8 2 1 ENE 1017,9
23.07.2019 14:00:00 29,1 24,4 8 4 NNE 1018,4
23.07.2019 13:00:00 28,3 25,7 0 0 N 1019,0
23.07.2019 12:00:00 27,4 26,2 0 0 N 1019,3
23.07.2019 11:00:00 27,0 25,5 8 4 N 1019,6
23.07.2019 10:00:00 26,8 24,6 13 7 NNO 1019,7
23.07.2019 09:00:00 26,9 24,3 2 1 NO 1019,8
23.07.2019 08:00:00 26,5 24,5 9 5 NNO 1019,8
23.07.2019 07:00:00 26,1 24,8 11 6 NNO 1019,7
23.07.2019 06:00:00 26,2 25,1 0 0 N 1019,7
23.07.2019 05:00:00 25,9 24,4 0 0 N 1019,5
23.07.2019 04:00:00 26,3 25,2 0 0 N 1019,7
23.07.2019 03:00:00 26,2 24,0 0 0 N 1019,8
23.07.2019 02:00:00 26,4 25,7 0 0 N 1020,1
23.07.2019 01:00:00 26,7 24,7 0 0 N 1020,0
23.07.2019 00:00:00 27,1 23,9 0 0 N 1019,8
22.07.2019 23:00:00 27,3 23,5 0 0 N 1019,6
22.07.2019 22:00:00 28,4 22,3 0 0 N 1019,4
22.07.2019 21:00:00 29,6 21,8 0 0 N 1019,2
22.07.2019 20:00:00 31,1 22,4 0 0 N 1019,0
22.07.2019 19:00:00 32,0 23,2 0 0 N 1018,9
22.07.2019 18:00:00 31,9 22,9 2 1 SE 1019,2
22.07.2019 17:00:00 32,6 23,8 5 3 SO 1019,6
22.07.2019 16:00:00 32,6 24,3 2 1 SSO 1019,9
22.07.2019 15:00:00 29,6 23,0 2 1 ENE 1020,4
22.07.2019 14:00:00 28,0 23,5 8 4 NNE 1020,9
22.07.2019 13:00:00 27,3 24,3 0 0 N 1021,4
22.07.2019 12:00:00 26,8 23,8 4 2 NNO 1021,8
22.07.2019 11:00:00 26,5 23,7 8 4 NNO 1021,9
22.07.2019 10:00:00 26,1 22,7 18 10 NNO 1022,0
22.07.2019 09:00:00 26,0 23,0 16 9 NO 1022,0
22.07.2019 08:00:00 25,9 23,9 21 11 NNO 1021,7
22.07.2019 07:00:00 25,8 23,6 18 10 NNO 1021,5
22.07.2019 06:00:00 25,7 23,5 9 5 NO 1021,2
22.07.2019 05:00:00 25,7 23,9 9 5 NO 1020,9
22.07.2019 04:00:00 25,8 24,7 15 8 NO 1020,8
22.07.2019 03:00:00 25,6 24,0 0 0 N 1021,1
22.07.2019 02:00:00 25,6 23,8 0 0 N 1021,1
22.07.2019 01:00:00 25,8 23,2 0 0 N 1020,9
22.07.2019 00:00:00 26,3 24,3 2 1 ONO 1020,6
21.07.2019 23:00:00 26,4 23,2 2 1 ENE 1019,9
21.07.2019 22:00:00 26,6 22,0 0 0 N 1019,0
21.07.2019 21:00:00 27,2 23,6 0 0 N 1018,2
21.07.2019 20:00:00 27,6 23,4 0 0 N 1017,9
21.07.2019 19:00:00 31,3 19,9 0 0 N 1017,3
21.07.2019 18:00:00 32,1 20,3 4 2 SSO 1017,0
21.07.2019 17:00:00 32,7 19,9 2 1 NO 1017,4
21.07.2019 16:00:00 32,7 19,6 5 3 OSO 1017,6
21.07.2019 15:00:00 33,5 19,6 9 5 SO 1017,6
21.07.2019 14:00:00 33,6 20,4 11 6 SSO 1017,8
21.07.2019 13:00:00 32,0 20,6 9 5 SE 1018,1
21.07.2019 12:00:00 27,2 21,9 2 1 ONO 1018,6
21.07.2019 11:00:00 26,1 22,7 9 5 N 1018,8
21.07.2019 10:00:00 25,8 22,8 11 6 NNO 1018,8
21.07.2019 09:00:00 25,8 21,8 8 4 SSO 1018,7
21.07.2019 08:00:00 25,5 23,1 0 0 N 1018,9
21.07.2019 07:00:00 24,5 22,9 0 0 N 1018,9
21.07.2019 06:00:00 24,7 21,9 0 0 N 1018,8
21.07.2019 05:00:00 25,4 22,4 0 0 N 1018,4
21.07.2019 04:00:00 25,5 23,3 0 0 N 1018,3
21.07.2019 03:00:00 25,8 22,0 0 0 N 1018,3
21.07.2019 02:00:00 26,0 22,6 0 0 N 1018,2
21.07.2019 01:00:00 26,6 21,3 0 0 N 1017,9
21.07.2019 00:00:00 26,8 19,6 0 0 N 1017,5
20.07.2019 23:00:00 27,1 19,6 0 0 N 1017,1
20.07.2019 22:00:00 27,7 19,7 0 0 N 1016,8
20.07.2019 21:00:00 28,8 19,4 2 1 SSO 1016,2
20.07.2019 20:00:00 30,1 19,7 2 1 SO 1015,9
20.07.2019 19:00:00 30,5 19,5 5 3 SO 1015,9
20.07.2019 18:00:00 31,1 19,7 4 2 E 1016,0
20.07.2019 17:00:00 31,8 20,7 2 1 OSO 1016,5
20.07.2019 16:00:00 31,6 21,1 4 2 S 1016,8
20.07.2019 15:00:00 30,9 20,8 5 3 SSO 1016,9
20.07.2019 14:00:00 29,2 21,9 0 0 N 1017,2
20.07.2019 13:00:00 26,8 23,2 9 5 N 1017,6
20.07.2019 12:00:00 26,4 23,8 5 3 N 1017,8
20.07.2019 11:00:00 26,2 22,8 2 1 NNO 1017,8
20.07.2019 10:00:00 26,2 22,4 0 0 N 1017,5
20.07.2019 09:00:00 25,6 21,8 0 0 N 1017,6
20.07.2019 08:00:00 25,5 22,3 0 0 N 1017,2
20.07.2019 07:00:00 25,0 23,0 8 4 ONO 1016,7
20.07.2019 06:00:00 24,6 22,8 4 2 ONO 1016,6
20.07.2019 05:00:00 24,6 23,0 0 0 N 1016,6
20.07.2019 04:00:00 24,2 21,8 0 0 N 1016,5
20.07.2019 03:00:00 24,9 23,6 0 0 N 1016,6
20.07.2019 02:00:00 25,0 22,6 0 0 N 1016,5
20.07.2019 01:00:00 25,3 23,3 0 0 N 1016,4
20.07.2019 00:00:00 25,6 23,4 4 2 NE 1016,1
19.07.2019 23:00:00 26,0 20,7 0 0 N 1015,6
19.07.2019 22:00:00 27,0 18,8 0 0 N 1015,0
19.07.2019 21:00:00 28,0 18,6 0 0 N 1014,5
19.07.2019 20:00:00 28,9 18,6 0 0 N 1014,1
19.07.2019 19:00:00 29,3 18,4 2 1 SSO 1014,1
19.07.2019 18:00:00 28,4 17,5 2 1 SO 1014,2
19.07.2019 17:00:00 27,7 22,8 8 4 NNE 1014,4
19.07.2019 16:00:00 28,1 20,8 5 3 N 1014,6
19.07.2019 15:00:00 27,9 21,6 8 4 ENE 1015,0
19.07.2019 14:00:00 27,0 21,0 4 2 NNE 1015,4
19.07.2019 13:00:00 27,0 21,5 5 3 NE 1015,7
19.07.2019 12:00:00 26,1 21,5 0 0 N 1015,9
19.07.2019 11:00:00 25,1 19,9 11 6 N 1016,1
19.07.2019 10:00:00 24,8 20,0 9 5 NO 1016,0
19.07.2019 09:00:00 24,4 20,9 21 11 NNO 1015,8
19.07.2019 08:00:00 23,9 20,2 13 7 NO 1015,8
19.07.2019 07:00:00 23,8 20,1 13 7 NO 1015,4
19.07.2019 06:00:00 23,8 20,3 9 5 NO 1015,3
19.07.2019 05:00:00 23,8 20,1 8 4 NO 1015,2
19.07.2019 04:00:00 24,1 20,6 5 3 NO 1015,1
19.07.2019 03:00:00 24,2 20,5 9 5 NO 1014,8
19.07.2019 02:00:00 24,2 20,3 8 4 NO 1014,6
19.07.2019 01:00:00 24,5 20,8 8 4 NO 1014,1
19.07.2019 00:00:00 24,5 21,0 8 4 NNO 1013,7
18.07.2019 23:00:00 24,3 20,2 0 0 N 1013,2
18.07.2019 22:00:00 24,6 19,6 0 0 N 1012,9
18.07.2019 21:00:00 25,4 20,8 0 0 N 1012,0
18.07.2019 20:00:00 25,7 21,3 0 0 N 1011,9
18.07.2019 19:00:00 25,6 22,4 8 4 NO 1011,6
18.07.2019 18:00:00 26,1 20,8 0 0 N 1011,7
18.07.2019 17:00:00 26,1 22,1 0 0 N 1011,8
18.07.2019 16:00:00 26,5 20,5 8 4 N 1011,2
18.07.2019 15:00:00 25,7 20,4 0 0 N 1011,8
18.07.2019 14:00:00 25,4 21,2 8 4 NNO 1012,3
18.07.2019 13:00:00 24,5 21,8 11 6 NNO 1012,7
18.07.2019 12:00:00 24,6 20,9 15 8 NNO 1012,8
18.07.2019 11:00:00 24,5 21,4 18 10 NNO 1012,4
18.07.2019 10:00:00 24,5 21,0 18 10 NNO 1012,1
18.07.2019 09:00:00 24,6 21,1 13 7 NNO 1011,8
18.07.2019 08:00:00 24,1 22,1 24 13 NNO 1011,4
18.07.2019 07:00:00 24,2 21,6 24 13 NNO 1010,9

tt = Temperatura
td = dewpoint
ff = velocità del vento
dd = direzione del vento
ppp = reduced air pressure

Stazioni seguenti

WeatherPro
AMSI
MeteoEarth